Вернуться в каталог

STARLINK-30853

АктивенСвязьVLEO
NORAD 58236·PAYLOAD·🇺🇸 United States

Запущен Nov 8, 2023 с Cape Canaveral Space Force Station

Loading…

Ближайшие Пролёты (ближайшие 24 часа)

TLE

СвежийSource: CelesTrak SupGP

Эпоха: Sep 14, 2026, 22:08 UTC

1 58236C 23171G   26257.92270833 -.00021091  00000+0 -76409-3 0  2574
2 58236  43.0008 296.8404 0001525 265.4091  29.7727 15.27580649    16

Отслеживайте STARLINK-30853 в реальном времени с AllMySat

Download on the App Store